Notices

What's New in latest Release from April 7th, 2021:

- Updated Glossary, including Speed of Maximum Gust, and Total Hourly Precipitation

- Updated national and regional climate services offices contacts and prices information

- Addition of station inventory lists for 1981-2010, 1971-2000, and 1961-1990 Normals.

If you haven't already, please take our survey and provide feedback about our website: https://eccc.sondage-survey.ca/f/LanguageSelection.aspx?s=442ca660-fcf1-47c0-95a9-59707d6fd709

Hourly Data Report for December 24, 2020

MUSKOKA
ONTARIO
Current Station Operator: NAVCAN

44°58'29.000" N
79°18'12.000" W
281.90 m
6115529
71532
YQA

Download Data

Hourly Data (December 2020)
Hourly Data Report for December 24, 2020
TIME
LST
Temp Definition
°C
Dew Point Definition
°C
Rel Hum Definition
%
Precip. Amount Definition
mm

Wind Dir Definition
10's deg

Wind Spd Definition
km/h
Visibility Definition
km
Stn Press Definition
kPa
Hmdx Definition


Wind Chill Definition


Weather Definition


00:00 3.0 0.1 81 LegendMM 14 18 16.1 97.30     Rain
01:00 2.7 0.3 84 LegendMM 15 24 16.1 97.24     LegendNANA
02:00 3.4 0.5 81 LegendMM 14 26 16.1 97.12     LegendNANA
03:00 3.4 0.3 80 LegendMM 14 28 16.1 97.08     LegendNANA
04:00 3.5 0.0 78 LegendMM 14 18 16.1 97.00     LegendNANA
05:00 3.9 0.6 79 LegendMM 15 32 16.1 96.91     Rain
06:00 3.3 1.7 89 LegendMM 14 34 16.1 96.86     LegendNANA
07:00 3.8 2.0 88 LegendMM 15 28 16.1 96.74     LegendNANA
08:00 4.3 2.8 90 LegendMM 15 28 16.1 96.69     LegendNANA
09:00 4.9 3.2 89 LegendMM 16 30 16.1 96.68     LegendNANA
10:00 5.4 4.2 92 LegendMM 16 30 16.1 96.70     LegendNANA
11:00 5.8 5.1 95 LegendMM 17 21 8.1 96.71     Rain,Fog
12:00 1.6 0.7 94 479.5 28 21 6.4 96.88     Rain,Fog
13:00 0.5 -0.1 96 352.3 LegendMM 4 4.0 96.91     Snow
14:00 0.3 -0.1 97 LegendMM 20 5 6.4 97.01     Fog
15:00 -0.3 -1.0 95 LegendMM 28 13 4.8 97.07   -4 Snow
16:00 -1.0 -2.1 92 LegendMM 28 9 3.6 97.18   -4 Snow
17:00 -1.5 -2.3 94 LegendMM 30 8 1.6 97.21   -5 Snow
18:00 -1.6 -2.3 95 396.2 28 5 4.8 97.23   -3 Snow
19:00 -1.7 -3.4 88 LegendMM 31 8 9.7 97.23   -5 Snow
20:00 -2.1 -3.2 92 441.2 32 9 4.0 97.17   -6 Snow
21:00 -2.1 -2.9 94 0.0 32 9 9.7 97.15   -6 Snow
22:00 -2.2 -3.0 94 0.0 33 13 11.3 97.07   -7 Snow
23:00 -2.0 -3.1 92 0.0 35 13 16.1 96.97   -6 Snow

Notes on Data Quality.

Legend

  • E = Estimated
  • M = Missing
  • NA = Not Available*
  • [empty] = Indicates an unobserved value
Date modified: